Torna al catalogo

FENGYUN 1C DEB

AttivoSSO
NORAD 30405·DEBRIS·🇨🇳 China

Lanciato May 10, 1999 da Taiyuan Satellite Launch Center

Loading…

Prossimi Passaggi (prossime 24 ore)

TLE

AggiornatoSource: Space-Track

Epoca: Sep 14, 2026, 13:07 UTC

1 30405U 99025ADU 26257.54713531  .00002137  00000-0  82178-3 0  9990
2 30405  98.7949 359.2620 0049198  69.2020  52.5389 14.30789799 13314

Traccia FENGYUN 1C DEB in tempo reale con AllMySat

Download on the App Store